| time (UTC) | temp F | wind direction | speed MPH | gust MPH | rain 1hr in | rain 24hr in | rain mn in | humidity % | barometer mb |
| 20260507194552 | 61 | 184 | 0.0 | 4.0 | 0.00 | 0.00 | 0.00 | 40 | 1014.6 |
| 20260507193050 | 61 | 257 | 0.0 | 2.0 | 0.00 | 0.00 | 0.00 | 40 | 1014.6 |
| 20260507191552 | 61 | 9 | 0.0 | 3.0 | 0.00 | 0.00 | 0.00 | 41 | 1014.6 |
| 20260507190051 | 61 | 8 | 0.0 | 4.0 | 0.00 | 0.00 | 0.00 | 40 | 1014.8 |
| 20260507184547 | 61 | 278 | 0.0 | 3.0 | 0.00 | 0.00 | 0.00 | 44 | 1014.8 |
| 20260507183048 | 60 | 45 | 0.0 | 2.0 | 0.00 | 0.00 | 0.00 | 40 | 1014.8 |
| 20260507181544 | 60 | 40 | 0.0 | 4.0 | 0.00 | 0.00 | 0.00 | 41 | 1014.9 |
| 20260507180052 | 60 | 256 | 0.0 | 3.0 | 0.00 | 0.00 | 0.00 | 42 | 1015.0 |
| 20260507174542 | 60 | 44 | 1.0 | 3.0 | 0.00 | 0.00 | 0.00 | 39 | 1015.2 |
| 20260507173046 | 59 | 24 | 0.0 | 3.0 | 0.00 | 0.00 | 0.00 | 40 | 1015.4 |
| 20260507171553 | 59 | 271 | 0.0 | 3.0 | 0.00 | 0.00 | 0.00 | 44 | 1015.6 |
| 20260507170038 | 59 | 73 | 1.0 | 4.0 | 0.00 | 0.00 | 0.00 | 41 | 1015.7 |
| 20260507164545 | 59 | 85 | 0.0 | 3.0 | 0.00 | 0.00 | 0.00 | 41 | 1016.0 |
| 20260507163044 | 58 | 354 | 0.0 | 4.0 | 0.00 | 0.00 | 0.00 | 41 | 1016.2 |
| 20260507161541 | 58 | 217 | 1.0 | 3.0 | 0.00 | 0.00 | 0.00 | 39 | 1016.2 |
| 20260507160045 | 58 | 343 | 0.0 | 3.0 | 0.00 | 0.00 | 0.00 | 41 | 1016.1 |
| 20260507154534 | 58 | 264 | 0.0 | 4.0 | 0.00 | 0.00 | 0.00 | 49 | 1016.2 |
| 20260507153031 | 57 | 150 | 0.0 | 1.0 | 0.00 | 0.00 | 0.00 | 49 | 1016.1 |
| 20260507151526 | 56 | 27 | 0.0 | 3.0 | 0.00 | 0.00 | 0.00 | 51 | 1016.0 |
| 20260507150028 | 55 | 346 | 0.0 | 4.0 | 0.00 | 0.00 | 0.00 | 53 | 1015.9 |
| 20260507144529 | 54 | 298 | 0.0 | 3.0 | 0.00 | 0.00 | 0.00 | 54 | 1016.0 |
| 20260507143020 | 54 | 333 | 0.0 | 3.0 | 0.00 | 0.00 | 0.00 | 54 | 1016.2 |
| 20260507141519 | 53 | 17 | 0.0 | 3.0 | 0.00 | 0.00 | 0.00 | 53 | 1016.0 |
| 20260507140012 | 52 | 89 | 0.0 | 1.0 | 0.00 | 0.00 | 0.00 | 61 | 1016.0 |
| 20260507134508 | 51 | 1 | 0.0 | 2.0 | 0.00 | 0.00 | 0.00 | 61 | 1016.0 |
| 20260507133006 | 50 | 334 | 0.0 | 1.0 | 0.00 | 0.00 | 0.00 | 66 | 1016.0 |
| 20260507131501 | 49 | 212 | 0.0 | 0.0 | 0.00 | 0.00 | 0.00 | 77 | 1016.0 |
| 20260507130110 | 47 | 222 | 0.0 | 1.0 | 0.00 | 0.00 | 0.00 | 84 | 1016.1 |
| 20260507124633 | 46 | 32 | 0.0 | 1.0 | 0.00 | 0.00 | 0.00 | 90 | 1015.9 |
| 20260507123055 | 45 | 32 | 0.0 | 0.0 | 0.00 | 0.00 | 0.00 | 92 | 1015.9 |
| 20260507121554 | 44 | 352 | 0.0 | 0.0 | 0.00 | 0.00 | 0.00 | 92 | 1016.1 |
| 20260507120053 | 43 | 352 | 0.0 | 0.0 | 0.00 | 0.00 | 0.00 | 92 | 1016.1 |
| 20260507114610 | 43 | 353 | 0.0 | 0.0 | 0.00 | 0.00 | 0.00 | 92 | 1016.2 |
| 20260507113055 | 42 | 353 | 0.0 | 0.0 | 0.00 | 0.00 | 0.00 | 92 | 1016.1 |
| 20260507111548 | 42 | 353 | 0.0 | 0.0 | 0.00 | 0.00 | 0.00 | 93 | 1015.8 |
| 20260507110049 | 42 | 353 | 0.0 | 0.0 | 0.00 | 0.00 | 0.00 | 93 | 1015.7 |
| 20260507104551 | 42 | 353 | 0.0 | 0.0 | 0.00 | 0.00 | 0.00 | 93 | 1015.4 |
| 20260507103042 | 43 | 353 | 0.0 | 0.0 | 0.00 | 0.00 | 0.00 | 93 | 1015.3 |
| 20260507101542 | 43 | 352 | 0.0 | 0.0 | 0.00 | 0.00 | 0.00 | 93 | 1015.3 |
| 20260507100043 | 43 | 353 | 0.0 | 0.0 | 0.00 | 0.00 | 0.00 | 93 | 1015.3 |
| 20260507094543 | 43 | 353 | 0.0 | 0.0 | 0.00 | 0.00 | 0.00 | 93 | 1015.4 |
| 20260507093042 | 43 | 353 | 0.0 | 0.0 | 0.00 | 0.00 | 0.00 | 93 | 1015.3 |
| 20260507091542 | 43 | 353 | 0.0 | 0.0 | 0.00 | 0.00 | 0.00 | 93 | 1015.2 |
| 20260507090035 | 44 | 353 | 0.0 | 0.0 | 0.00 | 0.00 | 0.00 | 93 | 1015.1 |
| 20260507084535 | 44 | 353 | 0.0 | 0.0 | 0.00 | 0.01 | 0.00 | 93 | 1014.9 |
| 20260507083032 | 44 | 353 | 0.0 | 0.0 | 0.00 | 0.01 | 0.00 | 93 | 1014.9 |
| 20260507081531 | 44 | 353 | 0.0 | 0.0 | 0.00 | 0.01 | 0.00 | 93 | 1014.8 |
| 20260507080031 | 45 | 353 | 0.0 | 0.0 | 0.00 | 0.01 | 0.00 | 93 | 1014.8 |
| 20260507074530 | 45 | 352 | 0.0 | 0.0 | 0.00 | 0.06 | 0.00 | 93 | 1014.8 |
| 20260507073030 | 45 | 353 | 0.0 | 0.0 | 0.00 | 0.06 | 0.00 | 93 | 1014.8 |
| 20260507071528 | 45 | 353 | 0.0 | 0.0 | 0.00 | 0.06 | 0.00 | 93 | 1014.7 |
| 20260507070027 | 45 | 353 | 0.0 | 0.0 | 0.00 | 0.06 | 0.00 | 93 | 1014.7 |
| 20260507064525 | 45 | 352 | 0.0 | 0.0 | 0.00 | 0.15 | 0.00 | 93 | 1014.8 |
| 20260507063036 | 45 | 353 | 0.0 | 0.0 | 0.00 | 0.15 | 0.00 | 93 | 1014.9 |
| 20260507061526 | 45 | 353 | 0.0 | 0.0 | 0.00 | 0.15 | 0.00 | 93 | 1014.9 |
| 20260507060036 | 46 | 353 | 0.0 | 0.0 | 0.00 | 0.15 | 0.00 | 93 | 1015.0 |
| 20260507054522 | 46 | 353 | 0.0 | 0.0 | 0.00 | 0.28 | 0.00 | 93 | 1014.9 |
| 20260507053021 | 46 | 353 | 0.0 | 0.0 | 0.00 | 0.28 | 0.00 | 92 | 1014.9 |
| 20260507051519 | 46 | 353 | 0.0 | 0.0 | 0.00 | 0.28 | 0.00 | 92 | 1014.9 |
| 20260507050018 | 46 | 353 | 0.0 | 0.0 | 0.00 | 0.28 | 0.00 | 92 | 1014.9 |
| 20260507044518 | 47 | 353 | 0.0 | 0.0 | 0.00 | 0.55 | 0.00 | 92 | 1014.8 |
| 20260507043014 | 47 | 353 | 0.0 | 0.0 | 0.00 | 0.55 | 0.00 | 92 | 1015.0 |
| 20260507041513 | 47 | 353 | 0.0 | 0.0 | 0.00 | 0.55 | 0.00 | 92 | 1015.0 |
| 20260507040010 | 47 | 353 | 0.0 | 0.0 | 0.00 | 0.55 | 0.00 | 91 | 1015.1 |
| 20260507034526 | 48 | 353 | 0.0 | 0.0 | 0.00 | 0.62 | 0.55 | 91 | 1015.3 |
| 20260507033109 | 48 | 353 | 0.0 | 0.0 | 0.00 | 0.62 | 0.55 | 91 | 1015.2 |
| 20260507031506 | 48 | 352 | 0.0 | 0.0 | 0.00 | 0.62 | 0.55 | 91 | 1015.0 |
| 20260507030009 | 48 | 353 | 0.0 | 0.0 | 0.00 | 0.62 | 0.55 | 90 | 1014.9 |
| 20260507024504 | 48 | 353 | 0.0 | 0.0 | 0.00 | 0.63 | 0.55 | 89 | 1014.7 |
| 20260507023003 | 49 | 353 | 0.0 | 0.0 | 0.00 | 0.63 | 0.55 | 89 | 1014.7 |
| 20260507021502 | 50 | 353 | 0.0 | 0.0 | 0.00 | 0.63 | 0.55 | 87 | 1014.6 |
| 20260507020100 | 50 | 353 | 0.0 | 0.0 | 0.00 | 0.63 | 0.55 | 86 | 1014.4 |
| 20260507014603 | 51 | 353 | 0.0 | 0.0 | 0.00 | 0.64 | 0.55 | 84 | 1014.2 |
| 20260507013118 | 52 | 353 | 0.0 | 0.0 | 0.00 | 0.64 | 0.55 | 82 | 1014.0 |
| 20260507011604 | 52 | 353 | 0.0 | 0.0 | 0.00 | 0.64 | 0.55 | 80 | 1014.3 |
| 20260507010107 | 53 | 353 | 0.0 | 0.0 | 0.00 | 0.64 | 0.55 | 77 | 1014.0 |
| 20260507004555 | 54 | 353 | 0.0 | 0.0 | 0.00 | 0.65 | 0.55 | 76 | 1014.0 |
| 20260507003054 | 55 | 353 | 0.0 | 0.0 | 0.00 | 0.65 | 0.55 | 75 | 1013.9 |
| 20260507001556 | 55 | 353 | 0.0 | 0.0 | 0.00 | 0.65 | 0.55 | 75 | 1013.9 |
| 20260507000051 | 56 | 352 | 0.0 | 0.0 | 0.00 | 0.65 | 0.55 | 70 | 1013.7 |
| 20260506234551 | 56 | 353 | 0.0 | 0.0 | 0.00 | 0.77 | 0.55 | 68 | 1013.4 |
| 20260506233103 | 57 | 353 | 0.0 | 1.0 | 0.00 | 0.77 | 0.55 | 65 | 1013.6 |
| 20260506231551 | 57 | 353 | 0.0 | 1.0 | 0.00 | 0.77 | 0.55 | 62 | 1013.5 |
| 20260506230050 | 58 | 353 | 0.0 | 0.0 | 0.00 | 0.77 | 0.55 | 63 | 1013.5 |
| 20260506224650 | 58 | 354 | 0.0 | 1.0 | 0.00 | 0.87 | 0.55 | 64 | 1013.0 |
| 20260506223046 | 58 | 354 | 0.0 | 1.0 | 0.00 | 0.87 | 0.55 | 62 | 1012.8 |
| 20260506221552 | 58 | 346 | 0.0 | 1.0 | 0.00 | 0.87 | 0.55 | 63 | 1013.0 |
| 20260506220044 | 58 | 8 | 0.0 | 1.0 | 0.00 | 0.87 | 0.55 | 62 | 1012.9 |
| 20260506214543 | 59 | 8 | 0.0 | 1.0 | 0.00 | 0.87 | 0.55 | 63 | 1012.7 |
| 20260506213042 | 59 | 13 | 0.0 | 1.0 | 0.00 | 0.87 | 0.55 | 62 | 1012.9 |
| 20260506211542 | 59 | 338 | 0.0 | 1.0 | 0.00 | 0.87 | 0.55 | 60 | 1013.4 |
| 20260506210042 | 60 | 338 | 0.0 | 0.0 | 0.00 | 0.87 | 0.55 | 60 | 1013.1 |
| 20260506204541 | 60 | 338 | 0.0 | 1.0 | 0.00 | 0.87 | 0.55 | 60 | 1013.3 |
| 20260506203040 | 60 | 318 | 0.0 | 1.0 | 0.00 | 0.87 | 0.55 | 59 | 1013.0 |
| 20260506201541 | 60 | 15 | 0.0 | 2.0 | 0.00 | 0.87 | 0.55 | 61 | 1013.0 |
| 20260506200044 | 60 | 260 | 0.0 | 1.0 | 0.00 | 0.87 | 0.55 | 60 | 1013.1 |